Time,TemperatureF,DewpointF,PressureIn,WindDirection,WindDirectionDegrees,WindSpeedMPH,WindSpeedGustMPH,Humidity,HourlyPrecipIn,Conditions,Clouds,dailyrainin,SoftwareType,DateUTC
2013-10-01 00:02:00,66.4,64.3,29.96,SSW,210,5.0,7.0,93,0.00,,,0.00,WUHU216DAVISVP2,2013-10-01 05:02:00,
2013-10-01 00:07:00,66.4,64.3,29.96,South,186,3.0,7.0,93,0.00,,,0.00,WUHU216DAVISVP2,2013-10-01 05:07:00,
2013-10-01 00:12:00,66.4,64.3,29.96,SSW,207,0.0,5.0,93,0.00,,,0.00,WUHU216DAVISVP2,2013-10-01 05:12:00,
2013-10-01 00:17:00,66.4,64.3,29.96,SE,131,2.0,6.0,93,0.00,,,0.00,WUHU216DAVISVP2,2013-10-01 05:17:00,
2013-10-01 00:22:00,66.4,64.3,29.96,SSW,211,4.0,6.0,93,0.00,,,0.00,WUHU216DAVISVP2,2013-10-01 05:22:00,
2013-10-01 00:27:00,66.4,64.3,29.96,SSW,205,2.0,7.0,93,0.00,,,0.00,WUHU216DAVISVP2,2013-10-01 05:27:00,
2013-10-01 00:32:00,66.4,64.3,29.96,South,169,3.0,7.0,93,0.00,,,0.00,WUHU216DAVISVP2,2013-10-01 05:32:00,
2013-10-01 00:37:00,66.4,64.3,29.96,SSW,192,5.0,7.0,93,0.00,,,0.00,WUHU216DAVISVP2,2013-10-01 05:37:00,
2013-10-01 00:42:00,66.4,64.3,29.96,SSW,206,5.0,7.0,93,0.00,,,0.00,WUHU216DAVISVP2,2013-10-01 05:42:00,
2013-10-01 00:47:00,66.4,64.3,29.96,South,188,3.0,7.0,93,0.00,,,0.00,WUHU216DAVISVP2,2013-10-01 05:47:00,
2013-10-01 00:52:00,66.3,64.2,29.97,SSW,199,3.0,7.0,93,0.00,,,0.00,WUHU216DAVISVP2,2013-10-01 05:52:00,
2013-10-01 00:57:00,66.3,64.2,29.97,SSW,195,3.0,7.0,93,0.00,,,0.00,WUHU216DAVISVP2,2013-10-01 05:57:00,
2013-10-01 01:02:00,66.3,64.2,29.97,SSW,202,3.0,7.0,93,0.00,,,0.00,WUHU216DAVISVP2,2013-10-01 06:02:00,
2013-10-01 01:07:00,66.3,64.2,29.97,SSW,198,4.0,7.0,93,0.00,,,0.00,WUHU216DAVISVP2,2013-10-01 06:07:00,
2013-10-01 01:12:00,66.3,64.2,29.97,SSW,200,2.0,6.0,93,0.00,,,0.00,WUHU216DAVISVP2,2013-10-01 06:12:00,
2013-10-01 01:17:00,66.3,64.2,29.97,SSW,202,3.0,6.0,93,0.00,,,0.00,WUHU216DAVISVP2,2013-10-01 06:17:00,
2013-10-01 01:22:00,66.4,64.3,29.98,SSW,207,3.0,6.0,93,0.00,,,0.00,WUHU216DAVISVP2,2013-10-01 06:22:00,
2013-10-01 01:27:00,66.3,64.2,29.98,South,186,1.0,5.0,93,0.00,,,0.00,WUHU216DAVISVP2,2013-10-01 06:27:00,
2013-10-01 01:32:00,66.3,64.2,29.97,SSE,147,0.0,4.0,93,0.00,,,0.00,WUHU216DAVISVP2,2013-10-01 06:32:00,
2013-10-01 01:37:00,66.3,64.5,29.98,SW,217,2.0,4.0,94,0.00,,,0.00,WUHU216DAVISVP2,2013-10-01 06:37:00,
2013-10-01 01:42:00,66.3,64.5,29.98,SSW,194,6.0,6.0,94,0.00,,,0.00,WUHU216DAVISVP2,2013-10-01 06:42:00,
2013-10-01 01:47:00,66.3,64.5,29.98,SSW,203,4.0,6.0,94,0.00,,,0.00,WUHU216DAVISVP2,2013-10-01 06:47:00,
2013-10-01 01:52:00,66.3,64.5,29.98,SSW,206,3.0,6.0,94,0.00,,,0.00,WUHU216DAVISVP2,2013-10-01 06:52:00,
2013-10-01 01:57:00,66.3,64.5,29.98,SW,224,7.0,7.0,94,0.00,,,0.00,WUHU216DAVISVP2,2013-10-01 06:57:00,
2013-10-01 02:02:00,66.3,64.2,29.97,South,191,1.0,7.0,93,0.00,,,0.00,WUHU216DAVISVP2,2013-10-01 07:02:00,
2013-10-01 02:07:00,66.2,64.1,29.97,South,172,1.0,4.0,93,0.00,,,0.00,WUHU216DAVISVP2,2013-10-01 07:07:00,
2013-10-01 02:12:00,66.0,63.9,29.97,South,176,2.0,4.0,93,0.00,,,0.00,WUHU216DAVISVP2,2013-10-01 07:12:00,
2013-10-01 02:17:00,65.9,64.1,29.97,SSW,213,1.0,3.0,94,0.00,,,0.00,WUHU216DAVISVP2,2013-10-01 07:17:00,
2013-10-01 02:22:00,65.7,63.9,29.97,South,181,0.0,3.0,94,0.00,,,0.00,WUHU216DAVISVP2,2013-10-01 07:22:00,
2013-10-01 02:27:00,65.5,63.7,29.97,SSW,194,0.0,2.0,94,0.00,,,0.00,WUHU216DAVISVP2,2013-10-01 07:27:00,
2013-10-01 02:32:00,65.4,63.6,29.97,SSE,164,0.0,2.0,94,0.00,,,0.00,WUHU216DAVISVP2,2013-10-01 07:32:00,
2013-10-01 02:37:00,65.2,63.4,29.97,SSW,207,0.0,1.0,94,0.00,,,0.00,WUHU216DAVISVP2,2013-10-01 07:37:00,
2013-10-01 02:42:00,65.2,63.7,29.97,South,178,3.0,3.0,95,0.00,,,0.00,WUHU216DAVISVP2,2013-10-01 07:42:00,
2013-10-01 02:47:00,65.4,63.9,29.97,SSW,200,4.0,5.0,95,0.00,,,0.00,WUHU216DAVISVP2,2013-10-01 07:47:00,
2013-10-01 02:52:00,65.5,64.0,29.97,South,176,3.0,5.0,95,0.00,,,0.00,WUHU216DAVISVP2,2013-10-01 07:52:00,
2013-10-01 02:57:00,65.7,63.9,29.97,SSW,206,2.0,5.0,94,0.00,,,0.00,WUHU216DAVISVP2,2013-10-01 07:57:00,
2013-10-01 03:03:00,65.8,64.0,29.96,SW,219,3.0,5.0,94,0.00,,,0.00,WUHU216DAVISVP2,2013-10-01 08:03:00,
2013-10-01 03:08:00,65.9,64.1,29.97,SSE,167,0.0,4.0,94,0.00,,,0.00,WUHU216DAVISVP2,2013-10-01 08:08:00,
2013-10-01 03:13:00,65.8,64.0,29.97,SW,225,0.0,3.0,94,0.00,,,0.00,WUHU216DAVISVP2,2013-10-01 08:13:00,
2013-10-01 03:18:00,65.7,63.9,29.96,ENE,61,0.0,2.0,94,0.00,,,0.00,WUHU216DAVISVP2,2013-10-01 08:18:00,
2013-10-01 03:23:00,65.4,63.6,29.96,WSW,250,0.0,1.0,94,0.00,,,0.00,WUHU216DAVISVP2,2013-10-01 08:23:00,
2013-10-01 03:28:00,65.2,63.4,29.96,WSW,249,0.0,1.0,94,0.00,,,0.00,WUHU216DAVISVP2,2013-10-01 08:28:00,
2013-10-01 03:33:00,65.0,63.2,29.96,SSW,204,0.0,1.0,94,0.00,,,0.00,WUHU216DAVISVP2,2013-10-01 08:33:00,
2013-10-01 03:38:00,64.8,63.0,29.96,SSW,212,0.0,1.0,94,0.00,,,0.00,WUHU216DAVISVP2,2013-10-01 08:38:00,
2013-10-01 03:43:00,64.6,62.8,29.96,SSW,212,0.0,1.0,94,0.00,,,0.00,WUHU216DAVISVP2,2013-10-01 08:43:00,
2013-10-01 03:48:00,64.4,62.6,29.96,SSW,212,0.0,0.0,94,0.00,,,0.00,WUHU216DAVISVP2,2013-10-01 08:48:00,
2013-10-01 03:53:00,64.2,62.7,29.96,WSW,241,0.0,1.0,95,0.00,,,0.00,WUHU216DAVISVP2,2013-10-01 08:53:00,
2013-10-01 03:58:00,64.1,62.6,29.97,WSW,243,0.0,1.0,95,0.00,,,0.00,WUHU216DAVISVP2,2013-10-01 08:58:00,
2013-10-01 04:03:00,64.1,62.6,29.97,SW,217,0.0,1.0,95,0.00,,,0.00,WUHU216DAVISVP2,2013-10-01 09:03:00,
2013-10-01 04:08:00,63.9,62.4,29.97,SSW,212,0.0,1.0,95,0.00,,,0.00,WUHU216DAVISVP2,2013-10-01 09:08:00,
2013-10-01 04:13:00,63.9,62.7,29.97,SW,215,0.0,1.0,96,0.00,,,0.00,WUHU216DAVISVP2,2013-10-01 09:13:00,
2013-10-01 04:18:00,63.9,62.7,29.97,SW,214,0.0,1.0,96,0.00,,,0.00,WUHU216DAVISVP2,2013-10-01 09:18:00,
2013-10-01 04:23:00,63.9,62.7,29.97,SW,215,2.0,2.0,96,0.00,,,0.00,WUHU216DAVISVP2,2013-10-01 09:23:00,
2013-10-01 04:28:00,64.1,62.9,29.97,SSW,210,0.0,2.0,96,0.00,,,0.00,WUHU216DAVISVP2,2013-10-01 09:28:00,
2013-10-01 04:33:00,64.3,63.1,29.98,SSW,194,2.0,4.0,96,0.00,,,0.00,WUHU216DAVISVP2,2013-10-01 09:33:00,
2013-10-01 04:38:00,64.5,63.3,29.98,South,179,1.0,6.0,96,0.00,,,0.00,WUHU216DAVISVP2,2013-10-01 09:38:00,
2013-10-01 04:43:00,64.6,63.4,29.98,SSW,200,3.0,6.0,96,0.00,,,0.00,WUHU216DAVISVP2,2013-10-01 09:43:00,
2013-10-01 04:48:00,64.7,63.5,29.98,SSW,200,0.0,6.0,96,0.00,,,0.00,WUHU216DAVISVP2,2013-10-01 09:48:00,
2013-10-01 04:53:00,64.7,63.5,29.98,SW,219,2.0,5.0,96,0.00,,,0.00,WUHU216DAVISVP2,2013-10-01 09:53:00,
2013-10-01 04:58:00,64.8,63.6,29.98,SW,222,3.0,4.0,96,0.00,,,0.00,WUHU216DAVISVP2,2013-10-01 09:58:00,
2013-10-01 05:03:00,64.9,63.7,29.98,SSW,211,3.0,4.0,96,0.00,,,0.00,WUHU216DAVISVP2,2013-10-01 10:03:00,
2013-10-01 05:08:00,65.0,63.8,29.98,SSW,199,3.0,5.0,96,0.00,,,0.00,WUHU216DAVISVP2,2013-10-01 10:08:00,
2013-10-01 05:13:00,65.0,63.8,29.98,SW,221,3.0,5.0,96,0.00,,,0.00,WUHU216DAVISVP2,2013-10-01 10:13:00,
2013-10-01 05:19:00,65.1,63.9,29.98,SW,231,1.0,5.0,96,0.00,,,0.00,WUHU216DAVISVP2,2013-10-01 10:19:00,
2013-10-01 05:23:00,65.2,64.0,29.98,SSW,199,2.0,4.0,96,0.00,,,0.00,WUHU216DAVISVP2,2013-10-01 10:23:00,
2013-10-01 05:29:00,65.3,64.1,29.99,SSW,200,0.0,4.0,96,0.00,,,0.00,WUHU216DAVISVP2,2013-10-01 10:29:00,
2013-10-01 05:34:00,65.3,64.1,29.99,SSW,202,2.0,3.0,96,0.00,,,0.00,WUHU216DAVISVP2,2013-10-01 10:34:00,
2013-10-01 05:39:00,65.3,64.1,29.99,SSW,206,1.0,2.0,96,0.00,,,0.00,WUHU216DAVISVP2,2013-10-01 10:39:00,
2013-10-01 05:44:00,65.4,64.2,29.99,SE,143,1.0,3.0,96,0.00,,,0.00,WUHU216DAVISVP2,2013-10-01 10:44:00,
2013-10-01 05:49:00,65.4,64.2,29.99,South,172,2.0,5.0,96,0.00,,,0.00,WUHU216DAVISVP2,2013-10-01 10:49:00,
2013-10-01 05:54:00,65.4,64.2,29.99,SSW,206,5.0,5.0,96,0.00,,,0.00,WUHU216DAVISVP2,2013-10-01 10:54:00,
2013-10-01 05:59:00,65.4,64.2,30.00,SSW,213,2.0,5.0,96,0.00,,,0.00,WUHU216DAVISVP2,2013-10-01 10:59:00,
2013-10-01 06:04:00,65.5,64.3,30.00,SSW,203,1.0,4.0,96,0.00,,,0.00,WUHU216DAVISVP2,2013-10-01 11:04:00,
2013-10-01 06:09:00,65.5,64.3,30.00,SW,220,0.0,4.0,96,0.00,,,0.00,WUHU216DAVISVP2,2013-10-01 11:09:00,
2013-10-01 06:14:00,65.6,64.4,30.00,SSE,147,1.0,4.0,96,0.00,,,0.00,WUHU216DAVISVP2,2013-10-01 11:14:00,
2013-10-01 06:19:00,65.6,64.4,30.00,South,183,2.0,4.0,96,0.00,,,0.00,WUHU216DAVISVP2,2013-10-01 11:19:00,
2013-10-01 06:24:00,65.6,64.4,30.00,South,188,2.0,5.0,96,0.00,,,0.00,WUHU216DAVISVP2,2013-10-01 11:24:00,
2013-10-01 06:29:00,65.6,64.4,30.01,SE,144,3.0,5.0,96,0.00,,,0.00,WUHU216DAVISVP2,2013-10-01 11:29:00,
2013-10-01 06:34:00,65.7,64.5,30.01,SSW,198,2.0,6.0,96,0.00,,,0.00,WUHU216DAVISVP2,2013-10-01 11:34:00,
2013-10-01 06:39:00,65.7,64.5,30.01,SSW,200,1.0,6.0,96,0.00,,,0.00,WUHU216DAVISVP2,2013-10-01 11:39:00,
2013-10-01 06:44:00,65.8,64.6,30.01,South,176,2.0,3.0,96,0.00,,,0.00,WUHU216DAVISVP2,2013-10-01 11:44:00,
2013-10-01 06:50:00,65.8,64.6,30.01,SSW,211,1.0,4.0,96,0.00,,,0.00,WUHU216DAVISVP2,2013-10-01 11:50:00,
2013-10-01 06:55:00,65.9,64.7,30.01,South,188,0.0,4.0,96,0.00,,,0.00,WUHU216DAVISVP2,2013-10-01 11:55:00,
2013-10-01 07:00:00,65.9,64.7,30.01,WSW,238,0.0,4.0,96,0.00,,,0.00,WUHU216DAVISVP2,2013-10-01 12:00:00,
2013-10-01 07:05:00,65.9,64.7,30.01,SSW,208,1.0,4.0,96,0.00,,,0.00,WUHU216DAVISVP2,2013-10-01 12:05:00,
2013-10-01 07:10:00,66.0,64.8,30.01,SSE,160,1.0,6.0,96,0.00,,,0.00,WUHU216DAVISVP2,2013-10-01 12:10:00,
2013-10-01 07:15:00,66.0,64.8,30.01,South,173,3.0,6.0,96,0.00,,,0.00,WUHU216DAVISVP2,2013-10-01 12:15:00,
2013-10-01 07:20:00,66.0,64.8,30.01,SE,134,0.0,4.0,96,0.00,,,0.00,WUHU216DAVISVP2,2013-10-01 12:20:00,
2013-10-01 07:25:00,66.0,64.8,30.01,South,191,2.0,4.0,96,0.00,,,0.00,WUHU216DAVISVP2,2013-10-01 12:25:00,
2013-10-01 07:30:00,66.0,64.8,30.01,SSW,205,4.0,5.0,96,0.00,,,0.00,WUHU216DAVISVP2,2013-10-01 12:30:00,
2013-10-01 07:35:00,66.0,64.8,30.01,SSE,152,0.0,5.0,96,0.00,,,0.00,WUHU216DAVISVP2,2013-10-01 12:35:00,
2013-10-01 07:40:00,66.0,64.8,30.01,WSW,255,0.0,5.0,96,0.00,,,0.00,WUHU216DAVISVP2,2013-10-01 12:40:00,
2013-10-01 07:45:00,66.1,64.9,30.02,WSW,237,0.0,5.0,96,0.00,,,0.00,WUHU216DAVISVP2,2013-10-01 12:45:00,
2013-10-01 07:50:00,66.1,64.9,30.02,SW,231,0.0,3.0,96,0.00,,,0.00,WUHU216DAVISVP2,2013-10-01 12:50:00,
2013-10-01 07:55:00,66.2,65.3,30.02,SSW,212,0.0,3.0,97,0.00,,,0.00,WUHU216DAVISVP2,2013-10-01 12:55:00,
2013-10-01 08:00:00,66.3,65.4,30.02,ENE,75,0.0,4.0,97,0.00,,,0.00,WUHU216DAVISVP2,2013-10-01 13:00:00,
2013-10-01 08:05:00,66.3,65.1,30.02,SSE,161,1.0,7.0,96,0.00,,,0.00,WUHU216DAVISVP2,2013-10-01 13:05:00,
2013-10-01 08:10:00,66.4,65.2,30.03,SW,232,1.0,7.0,96,0.00,,,0.00,WUHU216DAVISVP2,2013-10-01 13:10:00,
2013-10-01 08:15:00,66.5,65.3,30.03,East,80,0.0,6.0,96,0.00,,,0.00,WUHU216DAVISVP2,2013-10-01 13:15:00,
2013-10-01 08:20:00,66.6,65.4,30.03,SSW,203,3.0,4.0,96,0.00,,,0.00,WUHU216DAVISVP2,2013-10-01 13:20:00,
2013-10-01 08:25:00,66.8,65.6,30.03,SSW,202,3.0,5.0,96,0.00,,,0.00,WUHU216DAVISVP2,2013-10-01 13:25:00,
2013-10-01 08:30:00,66.9,65.7,30.03,SSW,194,1.0,5.0,96,0.00,,,0.00,WUHU216DAVISVP2,2013-10-01 13:30:00,
2013-10-01 08:35:00,66.9,65.7,30.03,SSW,198,2.0,5.0,96,0.00,,,0.00,WUHU216DAVISVP2,2013-10-01 13:35:00,
2013-10-01 08:40:00,66.9,65.7,30.03,SW,225,5.0,6.0,96,0.00,,,0.00,WUHU216DAVISVP2,2013-10-01 13:40:00,
2013-10-01 08:45:00,66.9,65.7,30.03,SE,134,2.0,7.0,96,0.00,,,0.00,WUHU216DAVISVP2,2013-10-01 13:45:00,
2013-10-01 08:51:00,66.9,65.7,30.03,SW,225,3.0,7.0,96,0.00,,,0.00,WUHU216DAVISVP2,2013-10-01 13:51:00,
2013-10-01 08:56:00,66.9,65.7,30.03,SSW,205,2.0,6.0,96,0.00,,,0.00,WUHU216DAVISVP2,2013-10-01 13:56:00,
2013-10-01 09:01:00,67.0,65.8,30.03,South,191,3.0,5.0,96,0.00,,,0.00,WUHU216DAVISVP2,2013-10-01 14:01:00,
2013-10-01 09:06:00,67.1,65.9,30.04,SW,214,1.0,5.0,96,0.00,,,0.00,WUHU216DAVISVP2,2013-10-01 14:06:00,
2013-10-01 09:11:00,67.1,65.9,30.04,SW,220,3.0,5.0,96,0.00,,,0.00,WUHU216DAVISVP2,2013-10-01 14:11:00,
2013-10-01 09:16:00,67.2,66.0,30.04,SSW,198,2.0,4.0,96,0.00,,,0.00,WUHU216DAVISVP2,2013-10-01 14:16:00,
2013-10-01 09:21:00,67.3,66.1,30.03,South,172,1.0,4.0,96,0.00,,,0.00,WUHU216DAVISVP2,2013-10-01 14:21:00,
2013-10-01 09:26:00,67.6,66.4,30.04,SW,230,2.0,4.0,96,0.00,,,0.00,WUHU216DAVISVP2,2013-10-01 14:26:00,
2013-10-01 09:31:00,67.8,66.3,30.04,SSW,198,2.0,5.0,95,0.00,,,0.00,WUHU216DAVISVP2,2013-10-01 14:31:00,
2013-10-01 09:36:00,67.9,66.4,30.04,SSW,205,2.0,5.0,95,0.00,,,0.00,WUHU216DAVISVP2,2013-10-01 14:36:00,
2013-10-01 09:41:00,68.0,66.2,30.04,SSW,213,3.0,6.0,94,0.00,,,0.00,WUHU216DAVISVP2,2013-10-01 14:41:00,
2013-10-01 09:46:00,68.2,66.4,30.04,South,190,1.0,6.0,94,0.00,,,0.00,WUHU216DAVISVP2,2013-10-01 14:46:00,
2013-10-01 09:51:00,68.3,66.5,30.04,SSW,207,2.0,5.0,94,0.00,,,0.00,WUHU216DAVISVP2,2013-10-01 14:51:00,
2013-10-01 09:56:00,68.4,66.3,30.04,SSW,210,2.0,5.0,93,0.00,,,0.00,WUHU216DAVISVP2,2013-10-01 14:56:00,
2013-10-01 10:01:00,68.5,66.4,30.04,SSW,209,3.0,7.0,93,0.00,,,0.00,WUHU216DAVISVP2,2013-10-01 15:01:00,
2013-10-01 10:07:00,68.7,66.6,30.04,South,175,0.0,7.0,93,0.00,,,0.00,WUHU216DAVISVP2,2013-10-01 15:07:00,
2013-10-01 10:12:00,68.8,66.7,30.04,SW,214,3.0,7.0,93,0.00,,,0.00,WUHU216DAVISVP2,2013-10-01 15:12:00,
2013-10-01 10:17:00,68.9,66.8,30.04,SW,217,5.0,7.0,93,0.00,,,0.00,WUHU216DAVISVP2,2013-10-01 15:17:00,
2013-10-01 10:22:00,69.2,66.7,30.04,South,181,5.0,7.0,92,0.00,,,0.00,WUHU216DAVISVP2,2013-10-01 15:22:00,
2013-10-01 10:27:00,69.4,66.9,30.04,South,184,1.0,8.0,92,0.00,,,0.00,WUHU216DAVISVP2,2013-10-01 15:27:00,
2013-10-01 10:32:00,69.5,67.0,30.04,South,190,3.0,8.0,92,0.00,,,0.00,WUHU216DAVISVP2,2013-10-01 15:32:00,
2013-10-01 10:37:00,69.6,66.8,30.03,SSE,155,1.0,8.0,91,0.00,,,0.00,WUHU216DAVISVP2,2013-10-01 15:37:00,
2013-10-01 10:42:00,69.6,66.8,30.03,SSW,197,4.0,10.0,91,0.00,,,0.00,WUHU216DAVISVP2,2013-10-01 15:42:00,
2013-10-01 10:47:00,69.6,66.8,30.03,SSW,209,3.0,10.0,91,0.00,,,0.00,WUHU216DAVISVP2,2013-10-01 15:47:00,
2013-10-01 10:52:00,69.7,66.9,30.04,SSW,195,5.0,7.0,91,0.00,,,0.00,WUHU216DAVISVP2,2013-10-01 15:52:00,
2013-10-01 10:57:00,69.7,66.9,30.03,SW,219,1.0,9.0,91,0.00,,,0.00,WUHU216DAVISVP2,2013-10-01 15:57:00,
2013-10-01 11:02:00,70.1,67.3,30.03,SSW,205,2.0,8.0,91,0.00,,,0.00,WUHU216DAVISVP2,2013-10-01 16:02:00,
2013-10-01 11:07:00,70.4,67.3,30.03,SW,224,7.0,7.0,90,0.00,,,0.00,WUHU216DAVISVP2,2013-10-01 16:07:00,
2013-10-01 11:12:00,70.9,67.8,30.03,ESE,110,1.0,7.0,90,0.00,,,0.00,WUHU216DAVISVP2,2013-10-01 16:12:00,
2013-10-01 11:17:00,71.0,67.6,30.03,SSW,196,2.0,6.0,89,0.00,,,0.00,WUHU216DAVISVP2,2013-10-01 16:17:00,
2013-10-01 11:22:00,71.1,67.7,30.03,South,176,3.0,6.0,89,0.00,,,0.00,WUHU216DAVISVP2,2013-10-01 16:22:00,
2013-10-01 11:27:00,71.2,67.5,30.03,SSW,192,5.0,8.0,88,0.00,,,0.00,WUHU216DAVISVP2,2013-10-01 16:27:00,
2013-10-01 11:31:00,71.2,67.5,30.03,SSW,212,5.0,9.0,88,0.00,,,0.00,WUHU216DAVISVP2,2013-10-01 16:31:00,
2013-10-01 11:36:00,71.1,67.4,30.03,SSE,157,4.0,9.0,88,0.00,,,0.00,WUHU216DAVISVP2,2013-10-01 16:36:00,
2013-10-01 11:41:00,71.2,67.5,30.03,SSW,207,3.0,8.0,88,0.00,,,0.00,WUHU216DAVISVP2,2013-10-01 16:41:00,
2013-10-01 11:46:00,71.5,67.8,30.03,South,182,0.0,7.0,88,0.00,,,0.00,WUHU216DAVISVP2,2013-10-01 16:46:00,
2013-10-01 11:51:00,71.9,67.8,30.03,NNW,327,0.0,4.0,87,0.00,,,0.00,WUHU216DAVISVP2,2013-10-01 16:51:00,
2013-10-01 11:56:00,72.4,68.3,30.03,SSW,202,4.0,6.0,87,0.00,,,0.00,WUHU216DAVISVP2,2013-10-01 16:56:00,
2013-10-01 12:01:00,72.5,68.1,30.02,SSW,210,5.0,6.0,86,0.00,,,0.00,WUHU216DAVISVP2,2013-10-01 17:01:00,
2013-10-01 12:06:00,72.9,68.5,30.03,SSW,210,8.0,8.0,86,0.00,,,0.00,WUHU216DAVISVP2,2013-10-01 17:06:00,
2013-10-01 12:11:00,73.0,68.3,30.03,SSW,201,3.0,8.0,85,0.00,,,0.00,WUHU216DAVISVP2,2013-10-01 17:11:00,
2013-10-01 12:16:00,73.1,68.4,30.03,SSW,205,0.0,8.0,85,0.00,,,0.00,WUHU216DAVISVP2,2013-10-01 17:16:00,
2013-10-01 12:21:00,73.3,68.2,30.03,SW,214,3.0,6.0,84,0.00,,,0.00,WUHU216DAVISVP2,2013-10-01 17:21:00,
2013-10-01 12:26:00,73.4,68.6,30.03,SW,229,0.0,6.0,85,0.00,,,0.00,WUHU216DAVISVP2,2013-10-01 17:26:00,
2013-10-01 12:31:00,73.7,68.9,30.02,SSW,202,5.0,6.0,85,0.00,,,0.00,WUHU216DAVISVP2,2013-10-01 17:31:00,
2013-10-01 12:36:00,73.8,69.0,30.02,SSE,164,2.0,10.0,85,0.00,,,0.00,WUHU216DAVISVP2,2013-10-01 17:36:00,
2013-10-01 12:42:00,73.9,68.5,30.02,SSW,203,8.0,10.0,83,0.00,,,0.00,WUHU216DAVISVP2,2013-10-01 17:42:00,
2013-10-01 12:47:00,74.1,68.7,30.02,SW,215,4.0,8.0,83,0.00,,,0.00,WUHU216DAVISVP2,2013-10-01 17:47:00,
2013-10-01 12:52:00,74.3,68.9,30.02,SSW,203,2.0,8.0,83,0.00,,,0.00,WUHU216DAVISVP2,2013-10-01 17:52:00,
2013-10-01 12:57:00,74.5,69.1,30.02,SW,232,5.0,9.0,83,0.00,,,0.00,WUHU216DAVISVP2,2013-10-01 17:57:00,
2013-10-01 13:02:00,74.7,69.3,30.02,SSW,201,4.0,9.0,83,0.00,,,0.00,WUHU216DAVISVP2,2013-10-01 18:02:00,
2013-10-01 13:07:00,74.8,69.4,30.01,WSW,250,0.0,9.0,83,0.00,,,0.00,WUHU216DAVISVP2,2013-10-01 18:07:00,
2013-10-01 13:12:00,75.1,69.3,30.01,SW,216,9.0,9.0,82,0.00,,,0.00,WUHU216DAVISVP2,2013-10-01 18:12:00,
2013-10-01 13:17:00,75.0,69.1,30.01,SSW,203,2.0,9.0,82,0.00,,,0.00,WUHU216DAVISVP2,2013-10-01 18:17:00,
2013-10-01 13:22:00,75.1,69.2,30.01,SSW,205,6.0,9.0,82,0.00,,,0.00,WUHU216DAVISVP2,2013-10-01 18:22:00,
2013-10-01 13:27:00,75.1,68.9,30.00,SSW,212,9.0,11.0,81,0.00,,,0.00,WUHU216DAVISVP2,2013-10-01 18:27:00,
2013-10-01 13:32:00,75.2,69.3,30.00,South,181,1.0,11.0,82,0.00,,,0.00,WUHU216DAVISVP2,2013-10-01 18:32:00,
2013-10-01 13:37:00,75.8,69.6,30.00,SSW,206,4.0,9.0,81,0.00,,,0.00,WUHU216DAVISVP2,2013-10-01 18:37:00,
2013-10-01 13:42:00,76.0,69.5,30.00,SW,217,11.0,12.0,80,0.00,,,0.00,WUHU216DAVISVP2,2013-10-01 18:42:00,
2013-10-01 13:47:00,76.1,69.6,30.00,South,188,2.0,12.0,80,0.00,,,0.00,WUHU216DAVISVP2,2013-10-01 18:47:00,
2013-10-01 13:52:00,76.3,69.4,30.00,South,185,4.0,9.0,79,0.00,,,0.00,WUHU216DAVISVP2,2013-10-01 18:52:00,
2013-10-01 13:57:00,76.6,69.7,29.99,South,173,4.0,9.0,79,0.00,,,0.00,WUHU216DAVISVP2,2013-10-01 18:57:00,
2013-10-01 14:02:00,77.2,69.9,30.00,SW,224,10.0,10.0,78,0.00,,,0.00,WUHU216DAVISVP2,2013-10-01 19:02:00,
2013-10-01 14:07:00,77.4,69.8,30.00,SSW,211,7.0,10.0,77,0.00,,,0.00,WUHU216DAVISVP2,2013-10-01 19:07:00,
2013-10-01 14:12:00,77.4,70.1,30.00,South,176,5.0,13.0,78,0.00,,,0.00,WUHU216DAVISVP2,2013-10-01 19:12:00,
2013-10-01 14:17:00,77.1,69.8,29.99,SSW,205,4.0,13.0,78,0.00,,,0.00,WUHU216DAVISVP2,2013-10-01 19:17:00,
2013-10-01 14:22:00,76.9,69.6,29.99,SW,232,3.0,9.0,78,0.00,,,0.00,WUHU216DAVISVP2,2013-10-01 19:22:00,
2013-10-01 14:27:00,76.9,70.0,29.99,SE,134,0.0,7.0,79,0.00,,,0.00,WUHU216DAVISVP2,2013-10-01 19:27:00,
2013-10-01 14:32:00,77.9,70.6,29.99,SSW,201,5.0,9.0,78,0.00,,,0.00,WUHU216DAVISVP2,2013-10-01 19:32:00,
2013-10-01 14:37:00,78.3,70.3,29.99,SW,216,5.0,9.0,76,0.00,,,0.00,WUHU216DAVISVP2,2013-10-01 19:37:00,
2013-10-01 14:42:00,78.3,70.3,29.99,WSW,247,4.0,9.0,76,0.00,,,0.00,WUHU216DAVISVP2,2013-10-01 19:42:00,
2013-10-01 14:47:00,77.9,70.3,29.99,SSW,207,4.0,11.0,77,0.00,,,0.00,WUHU216DAVISVP2,2013-10-01 19:47:00,
2013-10-01 14:52:00,78.1,70.4,29.99,SSW,199,8.0,11.0,77,0.00,,,0.00,WUHU216DAVISVP2,2013-10-01 19:52:00,
2013-10-01 14:57:00,78.5,70.3,29.99,South,177,4.0,10.0,76,0.00,,,0.00,WUHU216DAVISVP2,2013-10-01 19:57:00,
2013-10-01 15:02:00,78.3,70.1,29.99,SSE,156,5.0,10.0,76,0.00,,,0.00,WUHU216DAVISVP2,2013-10-01 20:02:00,
2013-10-01 15:07:00,78.0,70.2,29.99,SSW,192,3.0,8.0,77,0.00,,,0.00,WUHU216DAVISVP2,2013-10-01 20:07:00,
2013-10-01 15:12:00,78.1,70.3,29.99,SE,126,1.0,9.0,77,0.00,,,0.00,WUHU216DAVISVP2,2013-10-01 20:12:00,
2013-10-01 15:17:00,78.1,70.1,29.99,SSW,203,3.0,9.0,76,0.00,,,0.00,WUHU216DAVISVP2,2013-10-01 20:17:00,
2013-10-01 15:22:00,78.0,70.3,29.99,SW,232,4.0,7.0,77,0.00,,,0.00,WUHU216DAVISVP2,2013-10-01 20:22:00,
2013-10-01 15:27:00,77.7,70.1,29.99,SW,214,6.0,10.0,77,0.00,,,0.00,WUHU216DAVISVP2,2013-10-01 20:27:00,
2013-10-01 15:32:00,77.6,70.0,29.99,SW,236,3.0,10.0,77,0.00,,,0.00,WUHU216DAVISVP2,2013-10-01 20:32:00,
2013-10-01 15:37:00,77.4,69.8,29.99,SW,217,5.0,8.0,77,0.00,,,0.00,WUHU216DAVISVP2,2013-10-01 20:37:00,
2013-10-01 15:42:00,77.3,70.0,29.99,SSE,157,2.0,9.0,78,0.00,,,0.00,WUHU216DAVISVP2,2013-10-01 20:42:00,
2013-10-01 15:48:00,77.2,69.9,29.99,SSE,161,5.0,9.0,78,0.00,,,0.00,WUHU216DAVISVP2,2013-10-01 20:48:00,
2013-10-01 15:53:00,77.1,70.2,29.99,SSW,198,4.0,7.0,79,0.00,,,0.00,WUHU216DAVISVP2,2013-10-01 20:53:00,
2013-10-01 15:58:00,76.9,70.0,29.99,South,181,5.0,9.0,79,0.00,,,0.00,WUHU216DAVISVP2,2013-10-01 20:58:00,
2013-10-01 16:03:00,76.9,70.0,29.99,South,177,3.0,9.0,79,0.00,,,0.00,WUHU216DAVISVP2,2013-10-01 21:03:00,
2013-10-01 16:08:00,76.9,70.0,29.99,SSW,205,6.0,6.0,79,0.00,,,0.00,WUHU216DAVISVP2,2013-10-01 21:08:00,
2013-10-01 16:13:00,76.9,70.0,29.99,South,181,3.0,7.0,79,0.00,,,0.00,WUHU216DAVISVP2,2013-10-01 21:13:00,
2013-10-01 16:18:00,77.1,70.2,29.99,South,175,3.0,7.0,79,0.00,,,0.00,WUHU216DAVISVP2,2013-10-01 21:18:00,
2013-10-01 16:23:00,77.1,69.8,29.99,SSW,209,2.0,6.0,78,0.00,,,0.00,WUHU216DAVISVP2,2013-10-01 21:23:00,
2013-10-01 16:28:00,77.5,70.2,29.99,SSW,200,5.0,7.0,78,0.00,,,0.00,WUHU216DAVISVP2,2013-10-01 21:28:00,
2013-10-01 16:33:00,77.7,70.4,29.99,South,174,4.0,9.0,78,0.00,,,0.00,WUHU216DAVISVP2,2013-10-01 21:33:00,
2013-10-01 16:38:00,77.6,70.3,29.99,SSW,205,6.0,9.0,78,0.00,,,0.00,WUHU216DAVISVP2,2013-10-01 21:38:00,
2013-10-01 16:43:00,77.4,70.5,29.99,SW,228,5.0,9.0,79,0.00,,,0.00,WUHU216DAVISVP2,2013-10-01 21:43:00,
2013-10-01 16:48:00,77.2,70.3,29.98,SW,220,3.0,7.0,79,0.00,,,0.00,WUHU216DAVISVP2,2013-10-01 21:48:00,
2013-10-01 16:53:00,77.1,70.1,29.98,SSW,200,3.0,7.0,79,0.00,,,0.00,WUHU216DAVISVP2,2013-10-01 21:53:00,
2013-10-01 16:58:00,77.0,70.0,29.99,SSW,205,6.0,7.0,79,0.00,,,0.00,WUHU216DAVISVP2,2013-10-01 21:58:00,
2013-10-01 17:03:00,76.7,70.1,29.99,SSW,211,0.0,7.0,80,0.00,,,0.00,WUHU216DAVISVP2,2013-10-01 22:03:00,
2013-10-01 17:08:00,76.6,70.0,29.99,South,174,2.0,7.0,80,0.00,,,0.00,WUHU216DAVISVP2,2013-10-01 22:08:00,
2013-10-01 17:13:00,76.3,70.1,29.99,SSE,160,3.0,6.0,81,0.00,,,0.00,WUHU216DAVISVP2,2013-10-01 22:13:00,
2013-10-01 17:18:00,76.2,70.0,29.99,SSW,199,7.0,9.0,81,0.00,,,0.00,WUHU216DAVISVP2,2013-10-01 22:18:00,
2013-10-01 17:23:00,76.0,70.2,29.99,SSW,211,0.0,9.0,82,0.00,,,0.00,WUHU216DAVISVP2,2013-10-01 22:23:00,
2013-10-01 17:28:00,76.1,70.3,29.99,SSW,203,2.0,7.0,82,0.00,,,0.00,WUHU216DAVISVP2,2013-10-01 22:28:00,
2013-10-01 17:33:00,76.3,70.5,29.99,WSW,239,2.0,7.0,82,0.00,,,0.00,WUHU216DAVISVP2,2013-10-01 22:33:00,
2013-10-01 17:38:00,76.6,70.4,29.99,SSW,199,3.0,5.0,81,0.00,,,0.00,WUHU216DAVISVP2,2013-10-01 22:38:00,
2013-10-01 17:43:00,76.8,70.6,29.99,SSW,205,5.0,7.0,81,0.00,,,0.00,WUHU216DAVISVP2,2013-10-01 22:43:00,
2013-10-01 17:48:00,76.8,70.6,29.99,SSE,165,0.0,7.0,81,0.00,,,0.00,WUHU216DAVISVP2,2013-10-01 22:48:00,
2013-10-01 17:53:00,76.9,70.7,29.98,SE,144,1.0,7.0,81,0.00,,,0.00,WUHU216DAVISVP2,2013-10-01 22:53:00,
2013-10-01 17:59:00,76.8,70.6,29.98,SSW,200,2.0,4.0,81,0.00,,,0.00,WUHU216DAVISVP2,2013-10-01 22:59:00,
2013-10-01 18:04:00,76.3,70.1,29.99,SW,215,3.0,6.0,81,0.00,,,0.00,WUHU216DAVISVP2,2013-10-01 23:04:00,
2013-10-01 18:09:00,75.8,70.0,29.99,SSW,207,2.0,6.0,82,0.00,,,0.00,WUHU216DAVISVP2,2013-10-01 23:09:00,
2013-10-01 18:14:00,75.3,69.8,29.99,SSE,156,3.0,6.0,83,0.00,,,0.00,WUHU216DAVISVP2,2013-10-01 23:14:00,
2013-10-01 18:19:00,75.0,69.9,29.99,SW,231,0.0,6.0,84,0.00,,,0.00,WUHU216DAVISVP2,2013-10-01 23:19:00,
2013-10-01 18:20:00,74.9,69.8,29.99,SE,146,2.0,6.0,84,0.00,,,0.00,WUHU216DAVISVP2,2013-10-01 23:20:00,
2013-10-01 18:25:00,74.6,69.8,29.99,SSW,202,2.0,5.0,85,0.00,,,0.00,WUHU216DAVISVP2,2013-10-01 23:25:00,
2013-10-01 18:30:00,74.3,69.8,29.99,South,190,1.0,5.0,86,0.00,,,0.00,WUHU216DAVISVP2,2013-10-01 23:30:00,
2013-10-01 18:35:00,74.0,69.5,29.99,SSE,167,0.0,4.0,86,0.00,,,0.00,WUHU216DAVISVP2,2013-10-01 23:35:00,
2013-10-01 18:40:00,73.7,69.6,29.99,SE,136,0.0,4.0,87,0.00,,,0.00,WUHU216DAVISVP2,2013-10-01 23:40:00,
2013-10-01 18:45:00,73.5,69.4,29.99,SSW,210,1.0,3.0,87,0.00,,,0.00,WUHU216DAVISVP2,2013-10-01 23:45:00,
2013-10-01 18:50:00,73.3,69.5,29.99,SW,217,0.0,3.0,88,0.00,,,0.00,WUHU216DAVISVP2,2013-10-01 23:50:00,
2013-10-01 18:55:00,73.1,69.3,29.99,South,184,2.0,2.0,88,0.00,,,0.00,WUHU216DAVISVP2,2013-10-01 23:55:00,
2013-10-01 19:00:00,73.0,69.2,29.99,South,191,2.0,4.0,88,0.00,,,0.00,WUHU216DAVISVP2,2013-10-02 00:00:00,
2013-10-01 19:05:00,73.0,69.2,29.99,SSW,210,2.0,4.0,88,0.00,,,0.00,WUHU216DAVISVP2,2013-10-02 00:05:00,
2013-10-01 19:10:00,72.9,69.5,29.99,SSW,195,0.0,4.0,89,0.00,,,0.00,WUHU216DAVISVP2,2013-10-02 00:10:00,
2013-10-01 19:15:00,72.7,68.9,29.99,SSW,201,2.0,4.0,88,0.00,,,0.00,WUHU216DAVISVP2,2013-10-02 00:15:00,
2013-10-01 19:16:00,72.6,69.2,29.99,SSW,195,2.0,4.0,89,0.00,,,0.00,WUHU216DAVISVP2,2013-10-02 00:16:00,
2013-10-01 19:21:00,72.3,68.9,29.99,West,263,1.0,3.0,89,0.00,,,0.00,WUHU216DAVISVP2,2013-10-02 00:21:00,
2013-10-01 19:26:00,72.0,68.6,29.99,SW,231,0.0,3.0,89,0.00,,,0.00,WUHU216DAVISVP2,2013-10-02 00:26:00,
2013-10-01 19:31:00,71.8,68.7,29.99,SSW,210,0.0,1.0,90,0.00,,,0.00,WUHU216DAVISVP2,2013-10-02 00:31:00,
2013-10-01 19:36:00,71.5,68.4,30.00,SSW,210,0.0,1.0,90,0.00,,,0.00,WUHU216DAVISVP2,2013-10-02 00:36:00,
2013-10-01 19:41:00,71.2,68.4,30.00,SSW,205,0.0,1.0,91,0.00,,,0.00,WUHU216DAVISVP2,2013-10-02 00:41:00,
2013-10-01 19:46:00,71.1,68.3,30.00,SSW,206,1.0,2.0,91,0.00,,,0.00,WUHU216DAVISVP2,2013-10-02 00:46:00,
2013-10-01 19:51:00,70.9,68.5,30.00,South,174,0.0,2.0,92,0.00,,,0.00,WUHU216DAVISVP2,2013-10-02 00:51:00,
2013-10-01 19:56:00,70.9,68.5,30.00,SW,214,0.0,2.0,92,0.00,,,0.00,WUHU216DAVISVP2,2013-10-02 00:56:00,
2013-10-01 20:01:00,70.8,68.4,30.00,SSW,209,0.0,1.0,92,0.00,,,0.00,WUHU216DAVISVP2,2013-10-02 01:01:00,
2013-10-01 20:06:00,70.9,68.4,30.00,SW,220,0.0,1.0,92,0.00,,,0.00,WUHU216DAVISVP2,2013-10-02 01:06:00,
2013-10-01 20:11:00,70.9,68.7,30.00,SW,215,1.0,2.0,93,0.00,,,0.00,WUHU216DAVISVP2,2013-10-02 01:11:00,
2013-10-01 20:16:00,71.1,68.6,30.00,SSW,204,0.0,2.0,92,0.00,,,0.00,WUHU216DAVISVP2,2013-10-02 01:16:00,
2013-10-01 20:21:00,71.2,68.7,30.00,SSW,197,0.0,2.0,92,0.00,,,0.00,WUHU216DAVISVP2,2013-10-02 01:21:00,
2013-10-01 20:26:00,71.4,68.9,30.00,South,186,0.0,2.0,92,0.00,,,0.00,WUHU216DAVISVP2,2013-10-02 01:26:00,
2013-10-01 20:31:00,71.4,68.9,30.00,South,178,0.0,2.0,92,0.00,,,0.00,WUHU216DAVISVP2,2013-10-02 01:31:00,
2013-10-01 20:36:00,71.5,69.0,30.00,SSW,208,0.0,1.0,92,0.00,,,0.00,WUHU216DAVISVP2,2013-10-02 01:36:00,
2013-10-01 20:41:00,71.6,69.1,30.00,SSW,207,0.0,3.0,92,0.00,,,0.00,WUHU216DAVISVP2,2013-10-02 01:41:00,
2013-10-01 20:46:00,71.7,68.9,30.00,SSW,199,4.0,4.0,91,0.00,,,0.00,WUHU216DAVISVP2,2013-10-02 01:46:00,
2013-10-01 20:51:00,71.9,68.8,30.00,SW,214,4.0,7.0,90,0.00,,,0.00,WUHU216DAVISVP2,2013-10-02 01:51:00,
2013-10-01 20:56:00,72.0,68.9,30.00,SSW,203,2.0,7.0,90,0.00,,,0.00,WUHU216DAVISVP2,2013-10-02 01:56:00,
2013-10-01 21:01:00,72.1,69.0,30.01,SSW,206,4.0,6.0,90,0.00,,,0.00,WUHU216DAVISVP2,2013-10-02 02:01:00,
2013-10-01 21:06:00,72.2,68.8,30.01,SSW,202,3.0,10.0,89,0.00,,,0.00,WUHU216DAVISVP2,2013-10-02 02:06:00,
2013-10-01 21:11:00,72.1,68.7,30.01,SSW,211,5.0,10.0,89,0.00,,,0.00,WUHU216DAVISVP2,2013-10-02 02:11:00,
2013-10-01 21:16:00,72.2,68.8,30.01,SSW,193,2.0,7.0,89,0.00,,,0.00,WUHU216DAVISVP2,2013-10-02 02:16:00,
2013-10-01 21:21:00,72.1,68.7,30.01,SSE,164,4.0,6.0,89,0.00,,,0.00,WUHU216DAVISVP2,2013-10-02 02:21:00,
2013-10-01 21:26:00,72.0,68.6,30.01,South,190,4.0,8.0,89,0.00,,,0.00,WUHU216DAVISVP2,2013-10-02 02:26:00,
2013-10-01 21:31:00,71.8,68.4,30.01,SSW,207,1.0,8.0,89,0.00,,,0.00,WUHU216DAVISVP2,2013-10-02 02:31:00,
2013-10-01 21:36:00,71.5,68.4,30.01,SSW,204,2.0,5.0,90,0.00,,,0.00,WUHU216DAVISVP2,2013-10-02 02:36:00,
2013-10-01 21:41:00,71.2,68.1,30.01,SW,219,0.0,4.0,90,0.00,,,0.00,WUHU216DAVISVP2,2013-10-02 02:41:00,
2013-10-01 21:46:00,71.0,67.9,30.01,South,191,1.0,4.0,90,0.00,,,0.00,WUHU216DAVISVP2,2013-10-02 02:46:00,
2013-10-01 21:51:00,70.8,68.0,30.01,South,175,1.0,4.0,91,0.00,,,0.00,WUHU216DAVISVP2,2013-10-02 02:51:00,
2013-10-01 21:56:00,70.5,67.7,30.01,SSW,212,1.0,3.0,91,0.00,,,0.00,WUHU216DAVISVP2,2013-10-02 02:56:00,
2013-10-01 22:01:00,70.3,67.5,30.01,South,184,0.0,2.0,91,0.00,,,0.00,WUHU216DAVISVP2,2013-10-02 03:01:00,
2013-10-01 22:07:00,70.1,67.6,30.02,SW,223,0.0,1.0,92,0.00,,,0.00,WUHU216DAVISVP2,2013-10-02 03:07:00,
2013-10-01 22:12:00,69.8,67.3,30.01,SW,223,0.0,1.0,92,0.00,,,0.00,WUHU216DAVISVP2,2013-10-02 03:12:00,
2013-10-01 22:17:00,69.7,67.2,30.02,SSW,198,0.0,1.0,92,0.00,,,0.00,WUHU216DAVISVP2,2013-10-02 03:17:00,
2013-10-01 22:22:00,69.5,67.4,30.02,SSW,198,0.0,1.0,93,0.00,,,0.00,WUHU216DAVISVP2,2013-10-02 03:22:00,
2013-10-01 22:27:00,69.4,67.3,30.02,SW,214,0.0,1.0,93,0.00,,,0.00,WUHU216DAVISVP2,2013-10-02 03:27:00,
2013-10-01 22:32:00,69.3,67.2,30.02,SSW,203,1.0,2.0,93,0.00,,,0.00,WUHU216DAVISVP2,2013-10-02 03:32:00,
2013-10-01 22:37:00,69.2,67.1,30.02,SSW,211,1.0,2.0,93,0.00,,,0.00,WUHU216DAVISVP2,2013-10-02 03:37:00,
2013-10-01 22:42:00,69.1,67.0,30.02,SSW,206,0.0,2.0,93,0.00,,,0.00,WUHU216DAVISVP2,2013-10-02 03:42:00,
2013-10-01 22:47:00,69.0,67.2,30.02,SSW,205,1.0,2.0,94,0.00,,,0.00,WUHU216DAVISVP2,2013-10-02 03:47:00,
2013-10-01 22:52:00,68.9,67.1,30.02,SSW,205,0.0,2.0,94,0.00,,,0.00,WUHU216DAVISVP2,2013-10-02 03:52:00,
2013-10-01 22:57:00,68.8,67.0,30.02,South,174,0.0,2.0,94,0.00,,,0.00,WUHU216DAVISVP2,2013-10-02 03:57:00,
2013-10-01 23:01:00,68.7,66.9,30.02,SSW,203,1.0,2.0,94,0.00,,,0.00,WUHU216DAVISVP2,2013-10-02 04:01:00,
2013-10-01 23:06:00,68.6,66.8,30.02,South,188,2.0,2.0,94,0.00,,,0.00,WUHU216DAVISVP2,2013-10-02 04:06:00,
2013-10-01 23:11:00,68.5,66.7,30.02,SW,217,1.0,2.0,94,0.00,,,0.00,WUHU216DAVISVP2,2013-10-02 04:11:00,
2013-10-01 23:16:00,68.4,66.9,30.02,SW,230,0.0,2.0,95,0.00,,,0.00,WUHU216DAVISVP2,2013-10-02 04:16:00,
2013-10-01 23:21:00,68.4,66.9,30.02,WSW,248,0.0,2.0,95,0.00,,,0.00,WUHU216DAVISVP2,2013-10-02 04:21:00,
2013-10-01 23:26:00,68.3,66.8,30.02,SW,214,1.0,3.0,95,0.00,,,0.00,WUHU216DAVISVP2,2013-10-02 04:26:00,
2013-10-01 23:31:00,68.2,66.7,30.02,SSE,166,0.0,3.0,95,0.00,,,0.00,WUHU216DAVISVP2,2013-10-02 04:31:00,
2013-10-01 23:36:00,68.1,66.6,30.02,SSW,200,0.0,2.0,95,0.00,,,0.00,WUHU216DAVISVP2,2013-10-02 04:36:00,
2013-10-01 23:41:00,68.1,66.6,30.02,South,180,2.0,3.0,95,0.00,,,0.00,WUHU216DAVISVP2,2013-10-02 04:41:00,
2013-10-01 23:46:00,68.1,66.6,30.02,SSW,211,1.0,3.0,95,0.00,,,0.00,WUHU216DAVISVP2,2013-10-02 04:46:00,
2013-10-01 23:51:00,68.1,66.9,30.02,South,186,1.0,4.0,96,0.00,,,0.00,WUHU216DAVISVP2,2013-10-02 04:51:00,
2013-10-01 23:56:00,68.1,66.9,30.02,SSW,202,2.0,4.0,96,0.00,,,0.00,WUHU216DAVISVP2,2013-10-02 04:56:00,